Marion, IN

9:33 PM EST on November 19, 2017 (GMT -0500)
Marion Municipal

Weather History for KMZZ - February, 2013

Change the Weather History Date:

Tuesday, February 19, 2013

  Actual Average (KMIE) Record (KMIE)
Temperature  
Mean Temperature 31 °F -  
Max Temperature 62 °F 41 °F 65 °F (2017)
Min Temperature 18 °F 24 °F -10 °F (1993)
Degree Days  
Heating Degree Days 34    
Moisture  
Dew Point 19 °F    
Average Humidity 79    
Maximum Humidity 92    
Minimum Humidity 71    
Precipitation  
Precipitation 0.01 in - - ()
Sea Level Pressure  
Sea Level Pressure 29.85 in    
Wind  
Wind Speed 26 mph (West)    
Max Wind Speed 36 mph    
Max Gust Speed 43 mph    
Visibility 5 miles    
Events Rain , Snow    
Averages and records for this station are not official NWS values.
T = Trace of Precipitation, MM = Missing Value Source: NWS Daily Summary

Daily Weather History Graph

Daily Weather History Graph

Search for Another Location

Airport or City:

Trip Planner

Search our weather history database for the weather conditions in past years. The results will help you decide how hot, cold, wet, or windy it might be!

Date:

Astronomy

Feb. 19, 2013 Rise Set
Actual Time 7:30 AM EST 6:22 PM EST
Civil Twilight 7:02 AM EST 6:50 PM EST
Nautical Twilight 6:31 AM EST 7:22 PM EST
Astronomical Twilight 5:59 AM EST 7:54 PM EST
Moon 12:53 PM EST (2/19) 3:02 AM EST (2/19)
Length of Visible Light 11h 47m
Length of Day
10h 52m
Waxing Gibbous, 67% of the Moon is Illuminated
Feb 19
Waxing Gibbous
Feb 25
Full
Mar 4
Last Quarter
Mar 11
New
Mar 19
First Quarter

Hourly Weather History & Observations

Time (EST) Temp. Windchill Dew Point Humidity Pressure Visibility Wind Dir Wind Speed Gust Speed Precip Events Conditions
12:15 AM 44.1 °F 34.4 °F 38.7 °F 81% 29.56 in 7.0 mi South 27.6 mph 40.3 mph N/A Rain Light Rain
12:35 AM 43.7 °F 33.9 °F 38.8 °F 83% 29.56 in 7.0 mi South 27.6 mph 36.8 mph N/A Rain Light Rain
12:55 AM 43.7 °F 34.3 °F 39.2 °F 84% 29.55 in 7.0 mi SSW 25.3 mph 34.5 mph N/A Rain Light Rain
1:15 AM 43.7 °F 34.5 °F 39.4 °F 85% 29.54 in 7.0 mi SSW 24.2 mph 34.5 mph N/A Rain Light Rain
1:35 AM 43.3 °F 34.5 °F 40.1 °F 88% 29.54 in 7.0 mi SSW 21.9 mph 34.5 mph N/A Rain Light Rain
1:55 AM 40.8 °F 28.7 °F 37.2 °F 87% 29.59 in 4.0 mi West 35.7 mph 42.6 mph N/A   Overcast
2:15 AM 34.9 °F 23.6 °F 32.0 °F 89% 29.61 in 7.0 mi West 20.7 mph 38.0 mph N/A Rain Light Rain
2:35 AM 33.1 °F 18.9 °F 30.9 °F 92% 29.62 in 5.0 mi West 31.1 mph 38.0 mph N/A Snow Light Snow
2:55 AM 32.2 °F 18.1 °F 29.8 °F 91% 29.64 in 7.0 mi West 28.8 mph 40.3 mph N/A   Overcast
3:15 AM 32.0 °F 19.2 °F 28.4 °F 87% 29.65 in 7.0 mi West 23.0 mph 28.8 mph N/A   Overcast
3:35 AM 32.0 °F 19.2 °F 29.1 °F 89% 29.65 in 3.0 mi West 23.0 mph 35.7 mph N/A Snow Light Snow
3:55 AM 31.3 °F 17.4 °F 28.6 °F 90% 29.66 in 5.0 mi WNW 26.5 mph 34.5 mph N/A Snow Light Snow
4:15 AM 29.5 °F 14.2 °F 26.4 °F 88% 29.67 in 4.0 mi West 29.9 mph 40.3 mph N/A Snow Light Snow
4:35 AM 29.1 °F 14.2 °F 25.7 °F 87% 29.69 in 10.0 mi West 27.6 mph 35.7 mph N/A   Overcast
4:55 AM 28.6 °F 13.0 °F 24.8 °F 86% 29.70 in 7.0 mi West 29.9 mph 34.5 mph N/A   Overcast
5:15 AM 28.0 °F 13.3 °F 23.5 °F 83% 29.72 in 10.0 mi WNW 25.3 mph 33.4 mph N/A   Overcast
5:35 AM 27.1 °F 12.4 °F 21.9 °F 81% 29.73 in 10.0 mi West 24.2 mph 29.9 mph N/A   Overcast
5:55 AM 27.3 °F 11.3 °F 22.1 °F 81% 29.74 in 10.0 mi West 29.9 mph 38.0 mph N/A   Overcast
6:15 AM 27.1 °F 11.6 °F 21.6 °F 80% 29.74 in 10.0 mi West 27.6 mph 35.7 mph N/A   Overcast
6:55 AM 26.1 °F 10.1 °F 19.4 °F 76% 29.75 in 7.0 mi West 27.6 mph 35.7 mph N/A Snow Light Snow
7:15 AM 25.9 °F 11.1 °F 19.4 °F 76% 29.76 in 10.0 mi West 23.0 mph 34.5 mph N/A   Overcast
7:35 AM 25.7 °F 9.9 °F 19.4 °F 77% 29.76 in 10.0 mi West 26.5 mph 32.2 mph N/A   Overcast
7:55 AM 25.5 °F 10.3 °F 19.4 °F 78% 29.77 in 7.0 mi West 24.2 mph 31.1 mph N/A   Overcast
8:15 AM 25.2 °F 10.1 °F 18.9 °F 77% 29.79 in 7.0 mi West 23.0 mph 34.5 mph N/A Snow Light Snow
8:35 AM 24.6 °F 9.1 °F 18.9 °F 79% 29.80 in 4.0 mi West 24.2 mph 32.2 mph N/A Snow Light Snow
8:55 AM 23.7 °F 7.2 °F 17.6 °F 77% 29.81 in 7.0 mi West 26.5 mph 33.4 mph N/A Snow Light Snow
9:15 AM 23.2 °F 7.1 °F 16.2 °F 75% 29.81 in 7.0 mi West 24.2 mph 29.9 mph N/A   Overcast
9:35 AM 23.4 °F 7.4 °F 16.7 °F 76% 29.82 in 3.0 mi West 24.2 mph 29.9 mph N/A Snow Light Snow
9:55 AM 23.2 °F 5.9 °F 18.0 °F 80% 29.82 in 1.8 mi West 28.8 mph 33.4 mph N/A Snow Light Snow
10:15 AM 22.8 °F 5.7 °F 18.0 °F 82% 29.83 in 0.5 mi West 27.6 mph 35.7 mph N/A Snow Light Snow
10:35 AM 21.2 °F 4.9 °F 17.4 °F 85% 29.84 in 0.5 mi West 23.0 mph 29.9 mph N/A Snow Light Snow
10:55 AM 21.4 °F 5.1 °F 16.9 °F 83% 29.85 in 3.0 mi West 23.0 mph - N/A Snow Light Snow
11:15 AM 21.6 °F 4.7 °F 16.3 °F 80% 29.85 in 2.5 mi West 25.3 mph - N/A Snow Light Snow
11:35 AM 21.7 °F 4.6 °F 16.2 °F 79% 29.86 in 4.0 mi West 26.5 mph 33.4 mph N/A Snow Light Snow
11:55 AM 22.3 °F 5.9 °F 16.3 °F 78% 29.86 in 5.0 mi West 24.2 mph 34.5 mph N/A Snow Light Snow
12:15 PM 22.8 °F 7.0 °F 16.0 °F 75% 29.86 in 5.0 mi West 23.0 mph 32.2 mph N/A Snow Light Snow
12:35 PM 22.3 °F 4.2 °F 16.2 °F 77% 29.87 in 4.0 mi West 31.1 mph 36.8 mph N/A Snow Light Snow
12:55 PM 21.6 °F 3.5 °F 14.5 °F 74% 29.88 in 4.0 mi West 29.9 mph 38.0 mph N/A Snow Light Snow
1:15 PM 20.8 °F 2.8 °F 12.9 °F 71% 29.89 in 5.0 mi West 28.8 mph 39.1 mph N/A   Haze
1:35 PM 20.1 °F 1.5 °F 12.4 °F 72% 29.89 in 7.0 mi West 29.9 mph 35.7 mph N/A Snow Light Snow
1:55 PM 20.1 °F 3.4 °F 12.7 °F 73% 29.89 in 7.0 mi West 23.0 mph 33.4 mph N/A Snow Light Snow
2:15 PM 20.1 °F 3.1 °F 12.9 °F 74% 29.90 in 2.5 mi West 24.2 mph 35.7 mph N/A Snow Light Snow
2:35 PM 20.1 °F 3.1 °F 13.1 °F 74% 29.90 in 4.0 mi West 24.2 mph 28.8 mph N/A Snow Light Snow
2:55 PM 20.7 °F 3.5 °F 13.5 °F 74% 29.91 in 7.0 mi West 25.3 mph 28.8 mph N/A Snow Light Snow
3:15 PM 21.0 °F 5.0 °F 14.0 °F 74% 29.92 in 3.0 mi West 21.9 mph - N/A Snow Light Snow
3:35 PM 20.8 °F 2.8 °F 15.1 °F 78% 29.93 in 1.0 mi West 28.8 mph 33.4 mph N/A Snow Light Snow
3:55 PM 19.6 °F 2.3 °F 13.5 °F 77% 29.95 in 4.0 mi West 24.2 mph 39.1 mph N/A   Haze
4:15 PM 19.4 °F 2.1 °F 12.0 °F 73% 29.96 in 7.0 mi West 24.2 mph 31.1 mph N/A Snow Light Snow
4:35 PM 19.2 °F 1.2 °F 12.0 °F 74% 29.97 in 5.0 mi West 26.5 mph 36.8 mph N/A Snow Light Snow
4:55 PM 19.0 °F 2.7 °F 12.2 °F 75% 29.98 in 5.0 mi West 20.7 mph 24.2 mph N/A Snow Light Snow
5:15 PM 18.9 °F 0.7 °F 13.1 °F 78% 29.99 in 3.0 mi West 26.5 mph 31.1 mph N/A Snow Light Snow
5:35 PM 18.7 °F 2.7 °F 12.9 °F 78% 30.00 in 2.5 mi West 19.6 mph 29.9 mph N/A Snow Light Snow
5:55 PM 18.5 °F 3.3 °F 13.6 °F 81% 30.01 in 1.8 mi West 17.3 mph 27.6 mph N/A Snow Light Snow
6:15 PM 18.5 °F 1.6 °F 13.6 °F 81% 30.02 in 3.0 mi West 21.9 mph 26.5 mph N/A Snow Light Snow
7:35 PM 18.5 °F 2.0 °F 12.9 °F 79% 30.05 in 5.0 mi West 20.7 mph 25.3 mph N/A Snow Light Snow
7:55 PM 18.9 °F 2.5 °F 13.5 °F 79% 30.05 in 4.0 mi West 20.7 mph 27.6 mph N/A Snow Light Snow
8:15 PM 19.2 °F 3.0 °F 13.8 °F 80% 30.05 in 5.0 mi West 20.7 mph 28.8 mph N/A Snow Light Snow
8:35 PM 19.4 °F 1.8 °F 13.8 °F 79% 30.06 in 2.5 mi West 25.3 mph 28.8 mph N/A Snow Light Snow
8:55 PM 19.6 °F 2.3 °F 13.3 °F 77% 30.06 in 5.0 mi WNW 24.2 mph 32.2 mph N/A Snow Light Snow
9:15 PM 19.4 °F 1.4 °F 11.8 °F 72% 30.06 in 7.0 mi WNW 26.5 mph 33.4 mph N/A Snow Light Snow
9:35 PM 19.4 °F 2.1 °F 11.3 °F 71% 30.07 in 10.0 mi WNW 24.2 mph 34.5 mph N/A Snow Light Snow
9:55 PM 19.4 °F 1.4 °F 11.3 °F 71% 30.08 in 7.0 mi WNW 26.5 mph 32.2 mph N/A Snow Light Snow
10:15 PM 19.4 °F 2.1 °F 11.8 °F 72% 30.08 in 7.0 mi WNW 24.2 mph 29.9 mph N/A Snow Light Snow
10:35 PM 19.4 °F 2.8 °F 11.7 °F 72% 30.08 in 5.0 mi WNW 21.9 mph 28.8 mph N/A Snow Light Snow
10:55 PM 18.9 °F 1.4 °F 12.4 °F 76% 30.08 in 3.0 mi WNW 24.2 mph 33.4 mph N/A Snow Light Snow
11:15 PM 18.5 °F 2.0 °F 11.7 °F 75% 30.08 in 5.0 mi WNW 20.7 mph 27.6 mph N/A Snow Light Snow
11:35 PM 18.3 °F 1.8 °F 12.0 °F 76% 30.09 in 2.0 mi WNW 20.7 mph 27.6 mph N/A Snow Light Snow
11:55 PM 18.1 °F 2.0 °F 11.8 °F 76% 30.10 in 4.0 mi WNW 19.6 mph 24.2 mph N/A Snow Light Snow